FW9368 Weather Reports


time (UTC)temp
F
wind
direction
speed
knots
gust
knots
rain 1hr
in
rain 24hr
in
rain mn
in
humidity
%
barometer
mb
20260504195023 67 240 5.2 13.0 0.00 0.00 0.00 45 1009.8
20260504194536 68 203 4.3 15.6 0.00 0.00 0.00 45 1009.9
20260504194023 68 136 5.2 16.5 0.00 0.00 0.00 45 1009.9
20260504193523 68 208 5.2 16.5 0.00 0.00 0.00 45 1009.8
20260504193043 68 136 5.2 11.3 0.00 0.00 0.00 44 1009.9
20260504192522 68 201 6.1 19.1 0.00 0.00 0.00 45 1009.9
20260504192025 68 194 7.0 19.1 0.00 0.00 0.00 45 1009.8
20260504191604 68 167 6.1 13.0 0.00 0.00 0.00 45 1009.8
20260504191024 68 183 6.1 14.8 0.00 0.00 0.00 45 1009.9
20260504190524 68 275 4.3 14.8 0.00 0.00 0.00 44 1009.9
20260504190040 68 278 7.0 14.8 0.00 0.00 0.00 44 1009.9
20260504185523 68 267 5.2 16.5 0.00 0.00 0.00 44 1010.0
20260504185023 68 248 7.0 16.5 0.00 0.00 0.00 43 1010.1
20260504184549 68 269 5.2 13.9 0.00 0.00 0.00 44 1010.0
20260504184023 68 175 5.2 13.9 0.00 0.00 0.00 43 1010.2
20260504183522 68 178 5.2 17.4 0.00 0.00 0.00 44 1010.2
20260504183036 68 230 5.2 17.4 0.00 0.00 0.00 44 1010.3
20260504182527 68 259 5.2 12.2 0.00 0.00 0.00 43 1010.3
20260504182024 68 261 3.5 13.0 0.00 0.00 0.00 43 1010.4
20260504181535 68 265 3.5 13.0 0.00 0.00 0.00 43 1010.4
20260504181020 68 231 5.2 13.0 0.00 0.00 0.00 42 1010.4
20260504180524 68 148 4.3 11.3 0.00 0.00 0.00 41 1010.4
20260504180037 68 248 6.1 13.0 0.00 0.00 0.00 40 1010.7
20260504175523 68 144 4.3 13.0 0.00 0.00 0.00 39 1010.5
20260504175024 68 119 5.2 13.0 0.00 0.00 0.00 39 1010.6
20260504174539 68 162 6.1 20.9 0.00 0.00 0.00 37 1010.6
20260504174024 68 131 6.1 20.9 0.00 0.00 0.00 38 1010.7
20260504173523 68 223 4.3 13.0 0.00 0.00 0.00 37 1010.7
20260504173038 69 255 5.2 11.3 0.00 0.00 0.00 36 1010.7
20260504172523 69 176 5.2 11.3 0.00 0.00 0.00 36 1010.7
20260504172023 69 209 3.5 10.4 0.00 0.00 0.00 39 1010.7
20260504171541 68 223 2.6 11.3 0.00 0.00 0.00 38 1010.7
20260504171028 68 306 6.1 13.0 0.00 0.00 0.00 37 1010.7
20260504170523 68 173 5.2 13.0 0.00 0.00 0.00 38 1010.8
20260504151021 63 360 3.5 16.5 0.00 0.00 0.00 43 1012.4
20260504150526 63 360 2.6 16.5 0.00 0.00 0.00 43 1012.4
20260504141024 61 360 4.3 12.2 0.00 0.00 0.00 45 1012.8
20260504140522 60 360 4.3 12.2 0.00 0.00 0.00 46 1012.8
20260504130522 58 199 1.7 7.0 0.00 0.00 0.00 55 1013.2
20260504110520 37 0 0.0 0.0 0.00 0.00 0.00 92 1013.2
20260504100525 36 0 0.0 0.0 0.00 0.00 0.00 90 1013.1
20260504081538 36 0 0.0 0.0 0.00 0.00 0.00 88 1012.3
20260504081025 37 0 0.0 0.0 0.00 0.00 0.00 88 1012.2
20260504080522 37 0 0.0 0.0 0.00 0.00 0.00 87 1012.3
20260504050523 39 0 0.0 0.0 0.00 0.00 0.00 78 1011.9
20260504045522 39 0 0.0 0.9 0.00 0.00 0.00 78 1012.0
20260504045022 39 0 0.0 0.9 0.00 0.00 0.00 78 1011.9
20260504044538 39 0 0.0 0.9 0.00 0.00 0.00 77 1012.0
20260504044022 39 360 0.0 0.9 0.00 0.00 0.00 76 1012.0
20260504043531 40 0 0.0 1.7 0.00 0.00 0.00 76 1012.0
20260504043040 40 360 0.0 1.7 0.00 0.00 0.00 77 1012.1
20260504042523 40 0 0.0 0.9 0.00 0.00 0.00 76 1012.0
20260504042023 40 0 0.0 0.9 0.00 0.00 0.00 76 1012.0
20260504041538 40 0 0.0 0.9 0.00 0.00 0.00 76 1012.0
20260504041022 40 0 0.0 2.6 0.00 0.00 0.00 76 1011.8
20260504040523 40 0 0.0 2.6 0.00 0.00 0.00 75 1011.8
20260504040037 40 360 0.9 1.7 0.00 0.00 0.00 74 1011.9
20260504035525 41 0 0.0 0.9 0.00 0.00 0.00 74 1011.8
20260504035021 41 0 0.0 0.9 0.00 0.00 0.00 74 1011.8
20260504034535 41 0 0.0 0.9 0.00 0.00 0.00 73 1011.7
20260504034022 41 0 0.0 0.0 0.00 0.00 0.00 72 1011.8
20260504033523 41 0 0.0 0.0 0.00 0.00 0.00 72 1011.9
20260504033050 42 0 0.0 1.7 0.00 0.00 0.00 72 1011.7
20260504032524 42 0 0.0 1.7 0.00 0.00 0.00 71 1011.7
20260504032024 42 0 0.0 1.7 0.00 0.00 0.00 71 1011.7
20260504031545 42 360 0.0 0.9 0.00 0.00 0.00 70 1011.8
20260504031023 42 0 0.0 0.9 0.00 0.00 0.00 70 1011.7
20260504030523 43 0 0.0 0.9 0.00 0.00 0.00 69 1011.7
20260504030045 43 0 0.0 0.9 0.00 0.00 0.00 69 1011.7
20260504025524 43 0 0.0 0.9 0.00 0.00 0.00 68 1011.6
20260504025024 43 0 0.0 0.9 0.00 0.00 0.00 68 1011.6
20260504024542 43 360 0.0 1.7 0.00 0.00 0.00 67 1011.6
20260504024024 43 360 0.0 1.7 0.00 0.00 0.00 67 1011.7
20260504023524 44 360 0.0 1.7 0.00 0.00 0.00 66 1011.8
20260504023036 44 0 0.0 0.0 0.00 0.00 0.00 65 1011.8
20260504022528 44 0 0.0 0.0 0.00 0.00 0.00 65 1011.7
20260504022024 45 0 0.0 0.0 0.00 0.00 0.00 64 1011.6
20260504021539 45 0 0.0 0.0 0.00 0.00 0.00 61 1011.7
20260504021023 45 0 0.0 0.0 0.00 0.00 0.00 60 1011.6
20260504020525 45 0 0.0 0.0 0.00 0.00 0.00 61 1011.6
20260504020038 46 0 0.0 0.0 0.00 0.00 0.00 60 1011.6
20260504015525 46 0 0.0 0.0 0.00 0.00 0.00 57 1011.5
20260504015028 46 0 0.0 0.0 0.00 0.00 0.00 57 1011.5
20260504014540 47 0 0.0 0.0 0.00 0.00 0.00 56 1011.5
20260504014028 47 0 0.0 0.0 0.00 0.00 0.00 55 1011.4
20260504013524 47 0 0.0 0.0 0.00 0.00 0.00 56 1011.3
20260504013039 48 0 0.0 0.0 0.00 0.00 0.00 56 1011.2
20260504012524 48 0 0.0 0.0 0.00 0.00 0.00 56 1011.2
20260504012025 48 0 0.0 0.0 0.00 0.00 0.00 55 1011.1
20260504011535 48 0 0.0 0.0 0.00 0.00 0.00 53 1011.1
20260504011027 49 0 0.0 0.0 0.00 0.00 0.00 53 1011.1
20260504010523 49 0 0.0 0.0 0.00 0.00 0.00 52 1011.1
20260504010042 49 0 0.0 0.0 0.00 0.00 0.00 47 1011.0
20260504005524 50 0 0.0 0.0 0.00 0.00 0.00 47 1010.7
20260504005024 50 0 0.0 0.0 0.00 0.00 0.00 46 1010.8
20260504004540 50 0 0.0 0.0 0.00 0.00 0.00 45 1010.7
20260504004023 51 0 0.0 0.0 0.00 0.00 0.00 45 1010.6
20260504003523 51 0 0.0 0.9 0.00 0.00 0.00 44 1010.6
20260504003042 51 0 0.0 1.7 0.00 0.00 0.00 45 1010.6
20260504002527 52 0 0.0 1.7 0.00 0.00 0.00 46 1010.4
20260504002024 52 0 0.0 0.9 0.00 0.00 0.00 43 1010.4
20260504001537 53 0 0.0 0.9 0.00 0.00 0.00 41 1010.3
20260504001023 53 0 0.0 0.9 0.00 0.00 0.00 39 1010.0
20260504000522 53 0 0.0 0.9 0.00 0.00 0.00 38 1009.9
20260504000042 54 0 0.0 0.9 0.00 0.00 0.00 38 1010.0
20260503235523 54 0 0.0 0.9 0.00 0.00 0.00 38 1009.8
20260503235023 54 0 0.0 0.9 0.00 0.00 0.00 38 1009.7
20260503234535 54 0 0.0 0.9 0.00 0.00 0.00 37 1009.7
20260503234023 55 0 0.0 0.9 0.00 0.00 0.00 36 1009.7
20260503233525 55 0 0.0 3.5 0.00 0.00 0.00 36 1009.6
20260503233042 55 0 0.0 3.5 0.00 0.00 0.00 36 1009.5
20260503232523 55 36 0.0 4.3 0.00 0.00 0.00 36 1009.5
20260503232023 55 360 0.9 4.3 0.00 0.00 0.00 35 1009.5
20260503231538 55 360 0.9 3.5 0.00 0.00 0.00 35 1009.5
20260503231026 55 360 0.9 4.3 0.00 0.00 0.00 35 1009.4
20260503230525 56 360 0.9 4.3 0.00 0.00 0.00 35 1009.4
20260503230040 56 360 0.9 4.3 0.00 0.00 0.00 34 1009.4
20260503225521 56 0 0.9 7.0 0.00 0.00 0.00 34 1009.3
20260503225023 56 360 0.9 7.8 0.00 0.00 0.00 34 1009.4
20260503224536 56 360 2.6 9.6 0.00 0.00 0.00 34 1009.4
20260503224023 56 360 3.5 11.3 0.00 0.00 0.00 33 1009.4
20260503223523 56 360 3.5 11.3 0.00 0.00 0.00 34 1009.3
20260503223035 56 360 4.3 11.3 0.00 0.00 0.00 33 1009.2
20260503222524 56 0 2.6 11.3 0.00 0.00 0.00 34 1009.0
20260503222022 56 360 1.7 7.0 0.00 0.00 0.00 34 1009.0
20260503221542 56 360 1.7 8.7 0.00 0.00 0.00 34 1009.0
20260503221023 56 360 1.7 8.7 0.00 0.00 0.00 34 1009.0
20260503220524 56 360 3.5 7.8 0.00 0.00 0.00 34 1009.0
20260503220039 56 360 3.5 11.3 0.00 0.00 0.00 34 1009.1
20260503215523 56 360 2.6 11.3 0.00 0.00 0.00 33 1009.2
20260503215023 57 360 1.7 9.6 0.00 0.00 0.00 34 1009.1
20260503214538 56 304 2.6 9.6 0.00 0.00 0.00 34 1008.9
20260503214024 56 329 1.7 12.2 0.00 0.00 0.00 35 1009.1
20260503213524 56 360 2.6 12.2 0.00 0.00 0.00 35 1009.0
20260503213037 56 360 3.5 13.0 0.00 0.00 0.00 35 1008.9
20260503212522 56 302 3.5 13.0 0.00 0.00 0.00 34 1008.9
20260503212024 56 321 4.3 15.6 0.00 0.00 0.00 33 1009.0
20260503211535 56 42 4.3 15.6 0.00 0.00 0.00 34 1008.9
20260503211024 56 342 4.3 14.8 0.00 0.00 0.00 34 1009.2
20260503210523 57 349 2.6 14.8 0.00 0.00 0.00 34 1009.1
20260503210040 57 293 4.3 14.8 0.00 0.00 0.00 34 1009.1
20260503205524 56 320 3.5 15.6 0.00 0.00 0.00 35 1008.8
20260503205024 56 225 5.2 15.6 0.00 0.00 0.00 34 1008.8
20260503204538 56 360 5.2 16.5 0.00 0.00 0.00 34 1008.9
20260503204023 56 49 6.1 16.5 0.00 0.00 0.00 34 1008.9
20260503203530 56 334 2.6 10.4 0.00 0.00 0.00 36 1008.9
20260503203043 56 177 4.3 12.2 0.00 0.00 0.00 35 1008.9
20260503202523 56 348 5.2 12.2 0.00 0.00 0.00 35 1008.9
20260503202026 56 352 3.5 12.2 0.00 0.00 0.00 35 1008.9
20260503201537 56 11 4.3 12.2 0.00 0.00 0.00 35 1009.0
20260503201023 56 5 6.1 13.9 0.00 0.00 0.00 35 1009.0
20260503200525 56 28 4.3 13.9 0.00 0.00 0.00 35 1008.9
20260503200037 56 297 5.2 16.5 0.00 0.00 0.00 35 1009.0
20260503195523 56 5 2.6 16.5 0.00 0.00 0.00 35 1009.0
20260503195024 56 35 6.1 16.5 0.00 0.00 0.00 35 1009.2